EW8053 Weather Reports


time (UTC)temp
C
wind
direction
speed
KPH
gust
KPH
rain 1hr
cm
rain 24hr
cm
rain mn
cm
humidity
%
barometer
mb
20260903024609 25 0 0.0 0.0 0.00 0.00 0.00 80 1017.3
20260903023107 26 0 0.0 0.0 0.00 0.00 0.00 78 1017.4
20260903021603 27 0 0.0 0.0 0.00 0.00 0.00 75 1017.5
20260903020105 27 0 0.0 1.6 0.00 0.00 0.00 73 1017.4
20260903014633 28 0 0.0 4.8 0.00 0.00 0.00 71 1017.3
20260903013122 28 179 0.0 0.0 0.00 0.00 0.00 70 1017.2
20260903011611 28 0 0.0 1.6 0.00 0.00 0.00 70 1017.2
20260903010107 28 0 0.0 1.6 0.00 0.00 0.00 69 1017.0
20260903004605 28 242 0.0 4.8 0.00 0.00 0.00 68 1016.9
20260903003110 29 238 0.0 3.2 0.00 0.00 0.00 67 1016.8
20260903001609 29 0 0.0 3.2 0.00 0.00 0.00 65 1016.8
20260903000109 30 255 0.0 3.2 0.00 0.00 0.00 64 1016.7
20260902234605 30 0 1.6 4.8 0.00 0.00 0.00 63 1016.7
20260902233104 31 215 1.6 6.4 0.00 0.00 0.00 61 1016.6
20260902231603 31 216 1.6 6.4 0.00 0.00 0.00 59 1016.5
20260902230108 31 224 1.6 8.0 0.00 0.00 0.00 59 1016.6
20260902224611 32 217 0.0 8.0 0.00 0.00 0.00 59 1016.6
20260902223128 32 200 3.2 9.7 0.00 0.00 0.00 57 1016.7
20260902221605 33 219 1.6 9.7 0.00 0.00 0.00 55 1016.8
20260902220111 33 248 3.2 9.7 0.00 0.00 0.00 55 1016.8
20260902214615 33 236 3.2 8.0 0.00 0.00 0.00 56 1016.7
20260902213106 33 192 4.8 14.5 0.00 0.00 0.00 54 1016.7
20260902211605 33 196 3.2 9.7 0.00 0.00 0.00 55 1016.9
20260902210119 33 199 4.8 12.9 0.00 0.00 0.00 53 1016.9
20260902204606 33 227 3.2 11.3 0.00 0.00 0.00 50 1017.0
20260902203106 33 160 4.8 12.9 0.00 0.00 0.00 51 1017.3
20260902201606 33 240 4.8 12.9 0.00 0.00 0.00 49 1017.5
20260902200109 33 264 4.8 16.1 0.00 0.00 0.00 49 1017.7
20260902194607 33 189 4.8 16.1 0.00 0.00 0.00 48 1017.8
20260902193110 33 220 3.2 12.9 0.00 0.00 0.00 52 1017.8
20260902191607 33 237 1.6 11.3 0.00 0.00 0.00 53 1018.1
20260902190108 33 230 1.6 12.9 0.00 0.00 0.00 52 1018.1
20260902184607 33 137 4.8 11.3 0.00 0.00 0.00 50 1018.1
20260902183114 33 225 6.4 14.5 0.00 0.00 0.00 51 1018.3
20260902181606 33 220 4.8 11.3 0.00 0.00 0.00 53 1018.4
20260902180106 33 148 4.8 11.3 0.00 0.00 0.00 54 1018.6
20260902174604 33 236 0.0 9.7 0.00 0.00 0.00 56 1018.7
20260902173136 33 289 3.2 12.9 0.00 0.00 0.00 56 1019.0
20260902171626 33 319 3.2 9.7 0.00 0.00 0.00 57 1019.2
20260902170111 32 285 3.2 11.3 0.00 0.00 0.00 58 1019.2
20260902164613 32 243 3.2 8.0 0.00 0.00 0.00 61 1019.2
20260902163107 32 281 3.2 9.7 0.00 0.00 0.00 60 1019.3
20260902161606 32 207 3.2 8.0 0.00 0.00 0.00 61 1019.2
20260902160122 31 214 3.2 11.3 0.00 0.00 0.00 62 1019.4
20260902154604 31 307 3.2 11.3 0.00 0.00 0.00 62 1019.4
20260902153426 30 210 3.2 8.0 0.00 0.00 0.00 64 1019.5
20260902151607 30 250 1.6 6.4 0.00 0.00 0.00 66 1019.4
20260902150106 30 209 4.8 8.0 0.00 0.00 0.00 67 1019.4
20260902144621 29 279 1.6 8.0 0.00 0.00 0.00 68 1019.5
20260902143109 28 245 1.6 9.7 0.00 0.00 0.00 72 1019.5
20260902141611 28 215 1.6 6.4 0.00 0.00 0.00 72 1019.5
20260902140108 27 192 1.6 8.0 0.00 0.00 0.00 74 1019.4
20260902134608 27 286 0.0 6.4 0.00 0.00 0.00 75 1019.5
20260902133106 27 0 1.6 6.4 0.00 0.00 0.00 77 1019.5
20260902131628 26 0 3.2 8.0 0.00 0.00 0.00 77 1019.5
20260902130106 26 188 1.6 6.4 0.00 0.00 0.00 79 1019.4
20260902124612 25 196 1.6 6.4 0.00 0.00 0.00 80 1019.4
20260902123157 25 248 3.2 8.0 0.00 0.00 0.00 82 1019.3
20260902121602 23 270 1.6 6.4 0.00 0.00 0.00 85 1019.3
20260902120108 22 226 0.0 4.8 0.00 0.00 0.00 89 1019.1
20260902114608 21 229 0.0 0.0 0.00 0.00 0.00 90 1019.0
20260902113102 21 0 0.0 0.0 0.00 0.00 0.00 90 1018.9
20260902111609 21 0 0.0 0.0 0.00 0.00 0.00 90 1018.8
20260902110111 21 0 0.0 0.0 0.00 0.00 0.00 90 1018.8
20260902104608 21 0 0.0 0.0 0.00 0.00 0.00 90 1018.7
20260902103103 21 0 0.0 0.0 0.00 0.00 0.00 90 1018.6
20260902101607 21 0 0.0 0.0 0.00 0.00 0.00 90 1018.6
20260902094605 21 0 0.0 0.0 0.00 0.00 0.00 89 1018.7
20260902093112 22 0 0.0 0.0 0.00 0.00 0.00 88 1018.6
20260902091614 22 0 0.0 0.0 0.00 0.00 0.00 87 1018.5
20260902090109 22 0 0.0 0.0 0.00 0.00 0.00 87 1018.5
20260902084604 23 0 0.0 0.0 0.00 0.00 0.00 85 1018.4
20260902083105 23 0 0.0 1.6 0.00 0.00 0.00 85 1018.1
20260902081605 23 0 0.0 3.2 0.00 0.00 0.00 85 1018.0
20260902080104 23 224 0.0 4.8 0.00 0.00 0.00 86 1017.8
20260902074604 22 0 0.0 0.0 0.00 0.00 0.00 88 1017.8
20260902073104 22 0 0.0 0.0 0.00 0.00 0.00 88 1017.9
20260902071603 22 0 0.0 0.0 0.00 0.00 0.00 87 1017.9
20260902070107 23 0 0.0 0.0 0.00 0.00 0.00 86 1018.0
20260902064606 23 0 0.0 0.0 0.00 0.00 0.00 83 1018.0
20260902063108 24 0 0.0 0.0 0.00 0.00 0.00 82 1017.9
20260902061627 25 0 0.0 3.2 0.00 0.00 0.00 80 1018.0
20260902060115 25 293 0.0 1.6 0.00 0.00 0.00 79 1018.0
20260902054601 25 233 1.6 4.8 0.00 0.00 0.00 79 1017.9
20260902053102 25 227 0.0 1.6 0.00 0.00 0.00 80 1017.8
20260902051613 25 0 0.0 1.6 0.00 0.00 0.00 80 1017.7
20260902050105 25 162 0.0 3.2 0.00 0.00 0.00 80 1017.7
20260902044612 25 0 0.0 1.6 0.00 0.00 0.00 82 1017.9
20260902043106 24 174 0.0 1.6 0.00 0.00 0.00 85 1017.9
20260902041604 23 0 0.0 0.0 0.00 0.00 0.00 88 1018.0
20260902040107 23 0 0.0 0.0 0.00 0.00 0.00 87 1018.1
20260902034611 23 0 0.0 0.0 0.00 0.00 0.00 87 1018.1
20260902033107 23 0 0.0 0.0 0.00 0.00 0.00 86 1018.0
20260902031609 23 0 0.0 0.0 0.00 0.00 0.00 86 1018.0
20260902030105 24 0 0.0 0.0 0.00 0.00 0.00 86 1018.1